DB0BGL Weather Reports


time (UTC)temp
C
wind
direction
speed
KPH
gust
KPH
rain 1hr
cm
rain 24hr
cm
rain mn
cm
humidity
%
barometer
mb
20260902174621 10 52 4.8 8.0 0.00 0.00 0.00 94
20260902173620 10 56 8.0 8.0 0.00 0.00 0.00 93
20260902173226 10 57 4.8 6.4 0.00 0.00 0.00 93
20260902172620 10 57 4.8 6.4 0.00 0.00 0.00 93
20260902171619 10 45 0.0 8.0 0.00 0.00 0.00 93
20260902170619 11 88 0.0 1.6 0.00 0.00 0.00 92
20260902165618 12 66 0.0 0.0 0.00 0.00 0.00 100
20260902164618 12 66 0.0 0.0 0.00 0.00 0.00 100
20260902163617 13 66 0.0 0.0 0.00 0.00 0.00 79
20260902162616 15 66 0.0 0.0 0.00 0.00 0.00 74
20260902161616 16 66 0.0 0.0 0.00 0.00 0.00 67
20260902160615 17 66 0.0 0.0 0.00 0.00 0.00 60
20260902155615 20 66 0.0 0.0 0.00 0.00 0.00 55
20260902154614 -17 66 96.6 0.0 0.00 0.00 0.00
20260902153613 20 66 0.0 0.0 0.00 0.00 0.00 53
20260902152615 20 66 0.0 0.0 0.00 0.00 0.00 52
20260902151614 20 66 0.0 0.0 0.00 0.00 0.00 53
20260902150612 20 66 0.0 9.7 0.00 0.00 0.00 46
20260902145613 21 75 0.0 0.0 0.00 0.00 0.00 51
20260902144610 21 75 0.0 3.2 0.00 0.00 0.00 100
20260902143610 22 75 0.0 0.0 0.00 0.00 0.00 49
20260902142609 21 75 0.0 0.0 0.00 0.00 0.00 50
20260902141609 22 75 0.0 9.7 0.00 0.00 0.00 49
20260902140608 23 180 0.0 0.0 0.00 0.00 0.00 45
20260902135608 23 180 0.0 0.0 0.00 0.00 0.00 45
20260902134607 22 180 0.0 0.0 0.00 0.00 0.00 48
20260902133606 21 180 0.0 0.0 0.00 0.00 0.00 49
20260902132101 22 54 0.0 0.0 0.00 0.00 0.00 48
20260902131058 22 54 0.0 0.0 0.00 0.00 0.00 47
20260902130221 22 54 0.0 0.0 0.00 0.00 0.00 47
20260902130059 22 54 0.0 0.0 0.00 0.00 0.00 47
20260902125446 22 54 0.0 0.0 0.00 0.00 0.00 50
20260902125055 22 54 0.0 0.0 0.00 0.00 0.00 50
20260902124057 20 54 0.0 0.0 0.00 0.00 0.00 53
20260902123054 20 54 0.0 0.0 0.00 0.00 0.00 55
20260902122053 20 54 0.0 0.0 0.00 0.00 0.00 54
20260902121053 18 54 0.0 0.0 0.00 0.00 0.00 60
20260902120052 17 54 0.0 0.0 0.00 0.00 0.00 60
20260902115052 18 54 0.0 0.0 0.00 0.00 0.00 57
20260902114051 20 54 0.0 0.0 0.00 0.00 0.00 100
20260902113050 19 54 0.0 0.0 0.00 0.00 0.00 55
20260902112050 19 54 0.0 0.0 0.00 0.00 0.00 55
20260902111049 18 54 0.0 0.0 0.00 0.00 0.00 55
20260902110049 18 54 0.0 0.0 0.00 0.00 0.00 56
20260902105048 18 54 0.0 0.0 0.00 0.00 0.00 58
20260902104047 17 54 0.0 0.0 0.00 0.00 0.00 60
20260902103047 17 180 0.0 0.0 0.00 0.00 0.00 59
20260902102255 17 180 0.0 0.0 0.00 0.00 0.00 61
20260902102046 17 180 0.0 0.0 0.00 0.00 0.00 61
20260902101046 16 180 0.0 0.0 0.00 0.00 0.00 63
20260902100045 16 180 0.0 0.0 0.00 0.00 0.00 62
20260902095045 16 180 0.0 0.0 0.00 0.00 0.00 61
20260902094044 18 180 0.0 0.0 0.00 0.00 0.00 56
20260902093043 19 180 0.0 0.0 0.00 0.00 0.00 53
20260902092043 20 180 0.0 0.0 0.00 0.00 0.00 52
20260902091042 20 180 0.0 0.0 0.00 0.00 0.00 52
20260902090042 20 180 0.0 0.0 0.00 0.00 0.00 47
20260902085041 20 180 0.0 0.0 0.00 0.00 0.00 47
20260902084040 21 180 0.0 0.0 0.00 0.00 0.00 46
20260902083040 21 180 0.0 0.0 0.00 0.00 0.00 44
20260902082039 21 180 0.0 0.0 0.00 0.00 0.00 48
20260902081039 20 180 0.0 0.0 0.00 0.00 0.00 48
20260902080138 20 180 0.0 0.0 0.00 0.00 0.00 49
20260902080038 20 180 0.0 0.0 0.00 0.00 0.00 49
20260902075037 20 180 0.0 0.0 0.00 0.00 0.00 50
20260902074037 19 180 0.0 0.0 0.00 0.00 0.00 52
20260902073036 18 180 0.0 0.0 0.00 0.00 0.00 54
20260902072036 16 180 0.0 0.0 0.00 0.00 0.00 62
20260902071035 13 180 0.0 0.0 0.00 0.00 0.00 69
20260902070035 13 180 0.0 0.0 0.00 0.00 0.00 70
20260902065034 13 180 0.0 0.0 0.00 0.00 0.00 68
20260902064033 14 180 0.0 0.0 0.00 0.00 0.00 66
20260902063033 15 180 0.0 0.0 0.00 0.00 0.00 65
20260902062032 16 180 0.0 0.0 0.00 0.00 0.00 61
20260902061032 17 180 0.0 0.0 0.00 0.00 0.00 57
20260902060032 16 180 0.0 0.0 0.00 0.00 0.00 59
20260902055031 16 180 0.0 0.0 0.00 0.00 0.00 61
20260902054030 15 180 0.0 0.0 0.00 0.00 0.00 65
20260902053035 13 180 0.0 0.0 0.00 0.00 0.00 72
20260902052029 12 180 0.0 0.0 0.00 0.00 0.00 81
20260902051028 10 180 0.0 0.0 0.00 0.00 0.00 91
20260902050028 8 180 0.0 0.0 0.00 0.00 0.00 98